| time (UTC) | temp C | wind direction | speed KPH | gust KPH | rain 1hr cm | rain 24hr cm | rain mn cm | humidity % | barometer mb |
| 20260504004113 | 16 | 324 | 4.8 | 11.3 | 0.00 | 0.00 | 0.00 | 65 | 1035.9 |
| 20260504003110 | 16 | 241 | 1.6 | 6.4 | 0.00 | 0.00 | 0.00 | 69 | 1036.1 |
| 20260504002110 | 15 | 302 | 4.8 | 9.7 | 0.00 | 0.00 | 0.00 | 70 | 1036.3 |
| 20260504001106 | 15 | 310 | 8.0 | 12.9 | 0.00 | 0.00 | 0.00 | 68 | 1036.5 |
| 20260504000104 | 15 | 317 | 4.8 | 8.0 | 0.00 | 0.00 | 0.00 | 68 | 1036.6 |
| 20260503235103 | 14 | 311 | 6.4 | 12.9 | 0.00 | 0.00 | 0.00 | 69 | 1036.6 |
| 20260503234100 | 14 | 316 | 9.7 | 16.1 | 0.00 | 0.00 | 0.00 | 70 | 1036.7 |
| 20260503233058 | 14 | 323 | 9.7 | 16.1 | 0.00 | 0.00 | 0.00 | 70 | 1036.7 |
| 20260503232056 | 14 | 318 | 6.4 | 11.3 | 0.00 | 0.00 | 0.00 | 70 | 1036.8 |
| 20260503231053 | 14 | 345 | 6.4 | 12.9 | 0.00 | 0.00 | 0.00 | 70 | 1036.8 |
| 20260503230052 | 13 | 345 | 6.4 | 12.9 | 0.00 | 0.00 | 0.00 | 70 | 1036.8 |
| 20260503225050 | 14 | 327 | 6.4 | 11.3 | 0.00 | 0.00 | 0.00 | 70 | 1036.8 |
| 20260503224047 | 14 | 330 | 3.2 | 6.4 | 0.00 | 0.00 | 0.00 | 71 | 1036.9 |
| 20260503223045 | 13 | 351 | 6.4 | 9.7 | 0.00 | 0.00 | 0.00 | 71 | 1036.8 |
| 20260503222045 | 13 | 5 | 6.4 | 9.7 | 0.00 | 0.00 | 0.00 | 71 | 1036.9 |
| 20260503221045 | 13 | 5 | 4.8 | 11.3 | 0.00 | 0.00 | 0.00 | 71 | 1036.9 |
| 20260503220039 | 13 | 354 | 4.8 | 8.0 | 0.00 | 0.00 | 0.00 | 72 | 1036.9 |
| 20260503215036 | 13 | 54 | 3.2 | 6.4 | 0.00 | 0.00 | 0.00 | 73 | 1037.0 |
| 20260503214035 | 13 | 100 | 3.2 | 4.8 | 0.00 | 0.00 | 0.00 | 75 | 1037.0 |
| 20260503213032 | 13 | 77 | 3.2 | 6.4 | 0.00 | 0.00 | 0.00 | 75 | 1037.1 |
| 20260503212031 | 12 | 52 | 3.2 | 6.4 | 0.00 | 0.00 | 0.00 | 76 | 1037.0 |
| 20260503211028 | 12 | 64 | 3.2 | 6.4 | 0.00 | 0.00 | 0.00 | 77 | 1037.0 |
| 20260503210028 | 12 | 53 | 3.2 | 6.4 | 0.00 | 0.00 | 0.00 | 80 | 1036.9 |
| 20260503205047 | 11 | 55 | 4.8 | 9.7 | 0.00 | 0.00 | 0.00 | 81 | 1036.9 |
| 20260503204021 | 11 | 39 | 4.8 | 8.0 | 0.00 | 0.00 | 0.00 | 81 | 1036.8 |
| 20260503203019 | 11 | 87 | 4.8 | 6.4 | 0.00 | 0.00 | 0.00 | 81 | 1036.7 |
| 20260503202019 | 11 | 59 | 6.4 | 9.7 | 0.00 | 0.00 | 0.00 | 81 | 1036.7 |
| 20260503201015 | 11 | 72 | 6.4 | 9.7 | 0.00 | 0.00 | 0.00 | 82 | 1036.6 |
| 20260503200113 | 11 | 75 | 4.8 | 8.0 | 0.00 | 0.00 | 0.00 | 82 | 1036.5 |
| 20260503195111 | 11 | 71 | 4.8 | 11.3 | 0.00 | 0.00 | 0.00 | 83 | 1036.3 |
| 20260503194109 | 11 | 82 | 1.6 | 6.4 | 0.00 | 0.00 | 0.00 | 83 | 1036.1 |
| 20260503193107 | 10 | 93 | 4.8 | 9.7 | 0.00 | 0.00 | 0.00 | 83 | 1036.2 |
| 20260503192107 | 10 | 99 | 4.8 | 8.0 | 0.00 | 0.00 | 0.00 | 83 | 1036.1 |
| 20260503191103 | 10 | 90 | 9.7 | 14.5 | 0.00 | 0.00 | 0.00 | 83 | 1036.2 |
| 20260503185058 | 10 | 60 | 6.4 | 12.9 | 0.00 | 0.00 | 0.00 | 83 | 1036.1 |
| 20260503184117 | 10 | 67 | 4.8 | 9.7 | 0.00 | 0.00 | 0.00 | 83 | 1036.0 |
| 20260503183056 | 10 | 86 | 4.8 | 9.7 | 0.00 | 0.00 | 0.00 | 83 | 1036.0 |
| 20260503182054 | 10 | 93 | 4.8 | 8.0 | 0.00 | 0.00 | 0.00 | 84 | 1035.9 |
| 20260503181052 | 10 | 90 | 4.8 | 8.0 | 0.00 | 0.00 | 0.00 | 84 | 1035.9 |
| 20260503180048 | 10 | 95 | 6.4 | 9.7 | 0.00 | 0.00 | 0.00 | 84 | 1035.9 |
| 20260503175047 | 10 | 94 | 4.8 | 6.4 | 0.00 | 0.00 | 0.00 | 84 | 1035.9 |
| 20260503174104 | 10 | 94 | 3.2 | 6.4 | 0.00 | 0.00 | 0.00 | 84 | 1036.0 |
| 20260503173042 | 10 | 88 | 6.4 | 11.3 | 0.00 | 0.00 | 0.00 | 85 | 1036.0 |
| 20260503172041 | 10 | 45 | 4.8 | 8.0 | 0.00 | 0.00 | 0.00 | 85 | 1036.0 |
| 20260503171037 | 10 | 73 | 4.8 | 9.7 | 0.00 | 0.00 | 0.00 | 86 | 1036.1 |
| 20260503150109 | 10 | 90 | 3.2 | 6.4 | 0.00 | 0.00 | 0.00 | 93 | 1036.5 |
| 20260503131112 | 9 | 83 | 1.6 | 3.2 | 0.00 | 0.00 | 0.00 | 95 | 1036.6 |
| 20260503130110 | 9 | 83 | 1.6 | 4.8 | 0.00 | 0.00 | 0.00 | 95 | 1036.6 |
| 20260503081107 | 9 | 62 | 1.6 | 6.4 | 0.00 | 0.00 | 0.00 | 85 | 1034.7 |
| 20260503080106 | 9 | 107 | 4.8 | 6.4 | 0.00 | 0.00 | 0.00 | 83 | 1034.8 |
| 20260503072113 | 11 | 90 | 0.0 | 1.6 | 0.00 | 0.00 | 0.00 | 80 | 1034.5 |
| 20260503071043 | 11 | 93 | 1.6 | 3.2 | 0.00 | 0.00 | 0.00 | 78 | 1034.3 |
| 20260503055108 | 14 | 184 | 1.6 | 3.2 | 0.00 | 0.00 | 0.00 | 65 | 1034.2 |
| 20260503054128 | 15 | 197 | 1.6 | 4.8 | 0.00 | 0.00 | 0.00 | 64 | 1034.2 |
| 20260503053104 | 16 | 222 | 1.6 | 3.2 | 0.00 | 0.00 | 0.00 | 62 | 1034.2 |
| 20260503052116 | 17 | 225 | 3.2 | 6.4 | 0.00 | 0.00 | 0.00 | 61 | 1034.2 |
| 20260503051114 | 18 | 141 | 1.6 | 3.2 | 0.00 | 0.00 | 0.00 | 63 | 1034.1 |
| 20260503050112 | 17 | 129 | 1.6 | 4.8 | 0.00 | 0.00 | 0.00 | 67 | 1034.1 |
| 20260503045044 | 16 | 135 | 3.2 | 6.4 | 0.00 | 0.00 | 0.00 | 70 | 1034.2 |
| 20260503044041 | 15 | 229 | 4.8 | 8.0 | 0.00 | 0.00 | 0.00 | 69 | 1034.2 |
| 20260503043039 | 15 | 212 | 4.8 | 8.0 | 0.00 | 0.00 | 0.00 | 68 | 1034.1 |
| 20260503042056 | 16 | 281 | 1.6 | 4.8 | 0.00 | 0.00 | 0.00 | 68 | 1034.1 |
| 20260503041030 | 16 | 32 | 1.6 | 3.2 | 0.00 | 0.00 | 0.00 | 68 | 1034.2 |
| 20260503040111 | 15 | 27 | 0.0 | 3.2 | 0.00 | 0.00 | 0.00 | 67 | 1034.3 |
| 20260503035020 | 15 | 285 | 3.2 | 6.4 | 0.00 | 0.00 | 0.00 | 69 | 1034.4 |
| 20260503034020 | 15 | 213 | 3.2 | 6.4 | 0.00 | 0.00 | 0.00 | 69 | 1034.4 |
| 20260503033016 | 15 | 283 | 1.6 | 3.2 | 0.00 | 0.00 | 0.00 | 69 | 1034.4 |
| 20260503032149 | 15 | 270 | 3.2 | 6.4 | 0.00 | 0.00 | 0.00 | 68 | 1034.5 |
| 20260503031107 | 15 | 311 | 6.4 | 12.9 | 0.00 | 0.00 | 0.00 | 65 | 1034.4 |
| 20260503030105 | 16 | 308 | 6.4 | 12.9 | 0.00 | 0.00 | 0.00 | 65 | 1034.4 |
| 20260503025056 | 16 | 288 | 6.4 | 12.9 | 0.00 | 0.00 | 0.00 | 66 | 1034.4 |
| 20260503024054 | 17 | 209 | 3.2 | 12.9 | 0.00 | 0.00 | 0.00 | 65 | 1034.5 |
| 20260503023052 | 17 | 250 | 3.2 | 6.4 | 0.00 | 0.00 | 0.00 | 66 | 1034.5 |
| 20260503022106 | 17 | 243 | 4.8 | 9.7 | 0.00 | 0.00 | 0.00 | 67 | 1034.6 |
| 20260503021044 | 16 | 264 | 3.2 | 9.7 | 0.00 | 0.00 | 0.00 | 68 | 1034.7 |
| 20260503020039 | 16 | 301 | 6.4 | 11.3 | 0.00 | 0.00 | 0.00 | 69 | 1034.8 |
| 20260503015032 | 16 | 308 | 8.0 | 12.9 | 0.00 | 0.00 | 0.00 | 67 | 1034.8 |
| 20260503014031 | 16 | 291 | 9.7 | 12.9 | 0.00 | 0.00 | 0.00 | 63 | 1034.8 |
| 20260503013050 | 17 | 325 | 11.3 | 16.1 | 0.00 | 0.00 | 0.00 | 61 | 1034.9 |
| 20260503012020 | 17 | 315 | 9.7 | 14.5 | 0.00 | 0.00 | 0.00 | 59 | 1034.9 |
| 20260503011018 | 17 | 318 | 9.7 | 14.5 | 0.00 | 0.00 | 0.00 | 58 | 1035.0 |
| 20260503010015 | 17 | 317 | 9.7 | 14.5 | 0.00 | 0.00 | 0.00 | 57 | 1035.2 |
| 20260503005108 | 18 | 319 | 11.3 | 14.5 | 0.00 | 0.00 | 0.00 | 55 | 1035.3 |